TimePDT,TemperatureF,Dew PointF,Humidity,Sea Level PressureIn,VisibilityMPH,Wind Direction,Wind SpeedMPH,Gust SpeedMPH,PrecipitationIn,Events,Conditions,WindDirDegrees,DateUTC
12:32 AM,62.6,53.6,72,29.95,6.0,ESE,5.8,-,0.00,Rain,Light Rain,120,2013-05-06 07:32:00
12:53 AM,61.0,54.0,78,29.94,7.0,ESE,5.8,-,0.00,Rain,Light Rain,120,2013-05-06 07:53:00
1:18 AM,60.8,55.4,82,29.93,4.0,ESE,4.6,-,0.00,Rain,Light Rain,110,2013-05-06 08:18:00
1:53 AM,61.0,55.0,81,29.93,8.0,ESE,4.6,-,0.00,,Overcast,120,2013-05-06 08:53:00
2:10 AM,60.8,55.4,82,29.93,5.0,SE,4.6,-,0.01,Rain,Light Rain,130,2013-05-06 09:10:00
2:22 AM,60.8,55.4,82,29.92,2.0,ESE,4.6,-,0.03,Rain,Rain,120,2013-05-06 09:22:00
2:37 AM,60.8,55.4,82,29.92,6.0,ESE,5.8,-,0.03,Rain,Light Rain,120,2013-05-06 09:37:00
2:53 AM,61.0,55.9,83,29.91,6.0,ESE,3.5,-,0.03,,Haze,110,2013-05-06 09:53:00
3:03 AM,60.8,55.4,82,29.92,8.0,ESE,4.6,-,0.00,Rain,Light Rain,120,2013-05-06 10:03:00
3:50 AM,60.8,55.4,82,29.91,3.0,ESE,5.8,-,0.06,Rain,Rain,110,2013-05-06 10:50:00
3:53 AM,60.1,55.0,83,29.91,3.0,ESE,4.6,-,0.07,Rain,Heavy Rain,120,2013-05-06 10:53:00
3:56 AM,60.8,55.4,82,29.91,2.5,SE,4.6,-,0.00,Rain,Light Rain,140,2013-05-06 10:56:00
4:04 AM,60.8,55.4,82,29.91,3.0,ESE,4.6,-,0.02,Rain,Light Rain,120,2013-05-06 11:04:00
4:26 AM,60.8,55.4,82,29.91,1.8,East,8.1,-,0.06,Rain,Heavy Rain,90,2013-05-06 11:26:00
4:36 AM,60.8,55.4,82,29.91,2.5,East,5.8,-,0.08,Rain,Rain,100,2013-05-06 11:36:00
4:53 AM,60.1,55.9,86,29.90,2.5,East,6.9,-,0.14,Rain,Light Rain,80,2013-05-06 11:53:00
5:01 AM,60.8,55.4,82,29.90,3.0,ENE,5.8,-,0.01,Rain,Light Rain,60,2013-05-06 12:01:00
5:28 AM,60.8,55.4,82,29.90,7.0,ENE,8.1,-,0.01,Rain,Light Rain,70,2013-05-06 12:28:00
5:53 AM,60.1,55.9,86,29.91,10.0,Calm,Calm,-,0.02,Rain,Light Rain,0,2013-05-06 12:53:00
6:53 AM,62.1,57.0,84,29.93,10.0,Calm,Calm,-,0.00,,Overcast,0,2013-05-06 13:53:00
7:28 AM,62.6,57.2,82,29.95,10.0,South,6.9,-,N/A,,Overcast,170,2013-05-06 14:28:00
7:38 AM,62.6,57.2,82,29.95,10.0,South,4.6,-,N/A,,Overcast,180,2013-05-06 14:38:00
7:53 AM,64.0,57.0,78,29.95,10.0,SSE,5.8,-,N/A,,Overcast,150,2013-05-06 14:53:00
8:10 AM,64.4,57.2,77,29.96,10.0,Calm,Calm,-,0.00,Rain,Light Rain,0,2013-05-06 15:10:00
8:32 AM,64.4,57.2,77,29.95,10.0,SSE,3.5,-,0.00,,Overcast,150,2013-05-06 15:32:00
8:46 AM,64.4,57.2,77,29.96,10.0,SE,5.8,-,0.00,Rain,Light Rain,140,2013-05-06 15:46:00
8:53 AM,64.0,57.0,78,29.96,3.0,SE,5.8,-,0.02,Rain,Rain,140,2013-05-06 15:53:00
8:57 AM,64.4,57.2,77,29.97,1.8,SSE,8.1,-,0.02,Rain,Heavy Rain,150,2013-05-06 15:57:00
9:03 AM,62.6,57.2,82,29.97,0.8,South,6.9,-,0.12,Rain,Heavy Rain,170,2013-05-06 16:03:00
9:10 AM,62.6,55.4,77,29.97,1.0,South,5.8,-,0.14,Rain,Light Rain,190,2013-05-06 16:10:00
9:15 AM,62.6,55.4,77,29.97,3.0,South,3.5,-,0.14,Rain,Light Rain,190,2013-05-06 16:15:00
9:53 AM,64.9,57.0,75,29.97,10.0,SSE,5.8,-,0.14,,Mostly Cloudy,160,2013-05-06 16:53:00
10:14 AM,66.2,57.2,73,29.97,10.0,Variable,4.6,-,N/A,,Mostly Cloudy,0,2013-05-06 17:14:00
10:27 AM,66.2,55.4,68,29.97,10.0,Variable,6.9,-,N/A,,Overcast,0,2013-05-06 17:27:00
10:38 AM,66.2,55.4,68,29.97,10.0,South,8.1,-,N/A,,Overcast,190,2013-05-06 17:38:00
10:46 AM,66.2,53.6,64,29.97,10.0,South,8.1,-,N/A,,Overcast,190,2013-05-06 17:46:00
10:53 AM,66.9,55.0,66,29.97,10.0,South,9.2,16.1,N/A,,Overcast,190,2013-05-06 17:53:00
11:17 AM,68.0,53.6,60,29.98,10.0,SSW,6.9,-,N/A,,Overcast,200,2013-05-06 18:17:00
11:27 AM,68.0,55.4,64,29.98,10.0,SSW,8.1,-,N/A,,Overcast,200,2013-05-06 18:27:00
11:45 AM,68.0,55.4,64,29.98,10.0,SSW,8.1,-,N/A,,Overcast,210,2013-05-06 18:45:00
11:53 AM,68.0,54.0,61,29.98,10.0,South,10.4,-,N/A,,Overcast,180,2013-05-06 18:53:00
12:53 PM,70.0,54.0,57,29.97,10.0,South,8.1,16.1,N/A,,Mostly Cloudy,190,2013-05-06 19:53:00
1:53 PM,70.0,51.1,51,29.97,10.0,SSW,6.9,-,N/A,,Overcast,200,2013-05-06 20:53:00
2:53 PM,70.0,52.0,53,29.96,10.0,SSW,8.1,-,N/A,,Overcast,200,2013-05-06 21:53:00
3:53 PM,68.0,52.0,56,29.96,10.0,SW,9.2,-,N/A,,Overcast,220,2013-05-06 22:53:00
4:53 PM,68.0,53.1,59,29.96,10.0,South,11.5,-,N/A,,Overcast,180,2013-05-06 23:53:00
5:53 PM,66.9,52.0,59,29.96,10.0,SSE,6.9,-,N/A,,Mostly Cloudy,160,2013-05-07 00:53:00
6:53 PM,66.0,53.1,63,29.96,10.0,South,8.1,-,N/A,,Overcast,170,2013-05-07 01:53:00
7:53 PM,64.9,55.0,70,29.98,10.0,South,9.2,-,N/A,,Overcast,170,2013-05-07 02:53:00
8:53 PM,64.9,55.0,70,29.99,10.0,SSE,4.6,-,N/A,,Overcast,160,2013-05-07 03:53:00
9:53 PM,64.0,55.0,73,30.01,10.0,South,6.9,-,N/A,,Scattered Clouds,170,2013-05-07 04:53:00
10:53 PM,64.0,55.0,73,30.01,10.0,Variable,3.5,-,N/A,,Overcast,0,2013-05-07 05:53:00
11:53 PM,64.0,55.0,73,30.01,10.0,South,4.6,-,N/A,,Overcast,170,2013-05-07 06:53:00